TimeMST,TemperatureF,Dew PointF,Humidity,Sea Level PressureIn,VisibilityMPH,Wind Direction,Wind SpeedMPH,Gust SpeedMPH,PrecipitationIn,Events,Conditions,WindDirDegrees,DateUTC
12:15 AM,19.4,14.0,80,29.87,10.0,NNE,3.5,-,N/A,,Clear,30,2014-01-03 07:15:00
12:35 AM,19.4,15.8,86,29.86,10.0,Calm,Calm,-,N/A,,Clear,0,2014-01-03 07:35:00
12:55 AM,23.0,17.6,80,29.85,10.0,Calm,Calm,-,N/A,,Clear,0,2014-01-03 07:55:00
1:15 AM,21.2,15.8,80,29.84,10.0,Calm,Calm,-,N/A,,Clear,0,2014-01-03 08:15:00
1:35 AM,21.2,15.8,80,29.82,10.0,East,4.6,-,N/A,,Clear,90,2014-01-03 08:35:00
1:55 AM,21.2,15.8,80,29.82,10.0,Calm,Calm,-,N/A,,Clear,0,2014-01-03 08:55:00
2:15 AM,19.4,17.6,93,29.81,10.0,Calm,Calm,-,N/A,,Clear,0,2014-01-03 09:15:00
2:35 AM,21.2,15.8,80,29.81,10.0,Calm,Calm,-,N/A,,Clear,0,2014-01-03 09:35:00
2:55 AM,17.6,14.0,86,29.80,10.0,Calm,Calm,-,N/A,,Clear,0,2014-01-03 09:55:00
3:15 AM,19.4,15.8,86,29.79,10.0,Calm,Calm,-,N/A,,Clear,0,2014-01-03 10:15:00
3:35 AM,21.2,17.6,86,29.77,10.0,East,3.5,-,N/A,,Clear,80,2014-01-03 10:35:00
3:55 AM,21.2,15.8,80,29.75,10.0,East,6.9,-,N/A,,Clear,90,2014-01-03 10:55:00
4:15 AM,23.0,17.6,80,29.75,10.0,NE,4.6,-,N/A,,Clear,50,2014-01-03 11:15:00
4:35 AM,26.6,19.4,74,29.74,10.0,North,-9999.0,-,N/A,,Clear,0,2014-01-03 11:35:00
4:55 AM,24.8,17.6,74,29.72,10.0,ESE,3.5,-,N/A,,Clear,120,2014-01-03 11:55:00
5:15 AM,28.4,19.4,69,29.70,10.0,East,5.8,-,N/A,,Clear,100,2014-01-03 12:15:00
5:35 AM,28.4,19.4,69,29.69,10.0,ESE,5.8,-,N/A,,Clear,110,2014-01-03 12:35:00
5:55 AM,30.2,21.2,69,29.67,10.0,Calm,Calm,-,N/A,,Clear,0,2014-01-03 12:55:00
6:15 AM,28.4,19.4,69,29.67,10.0,NE,3.5,-,N/A,,Clear,50,2014-01-03 13:15:00
6:35 AM,26.6,19.4,74,29.65,10.0,East,6.9,-,N/A,,Clear,90,2014-01-03 13:35:00
6:55 AM,30.2,21.2,69,29.65,10.0,East,5.8,-,N/A,,Clear,90,2014-01-03 13:55:00
7:15 AM,28.4,21.2,74,29.64,10.0,ESE,4.6,-,N/A,,Clear,120,2014-01-03 14:15:00
7:35 AM,30.2,21.2,69,29.62,10.0,East,5.8,-,N/A,,Clear,100,2014-01-03 14:35:00
7:55 AM,32.0,21.2,64,29.60,10.0,East,9.2,-,N/A,,Clear,100,2014-01-03 14:55:00
8:15 AM,32.0,23.0,69,29.60,10.0,East,6.9,-,N/A,,Clear,90,2014-01-03 15:15:00
8:35 AM,33.8,23.0,65,29.60,10.0,East,8.1,-,N/A,,Clear,100,2014-01-03 15:35:00
8:55 AM,33.8,23.0,65,29.59,10.0,SE,8.1,-,N/A,,Clear,140,2014-01-03 15:55:00
9:15 AM,32.0,23.0,69,29.59,10.0,ESE,10.4,-,N/A,,Clear,120,2014-01-03 16:15:00
9:35 AM,33.8,23.0,65,29.58,10.0,ESE,11.5,-,N/A,,Clear,110,2014-01-03 16:35:00
9:55 AM,35.6,23.0,60,29.57,10.0,ESE,8.1,-,N/A,,Clear,110,2014-01-03 16:55:00
10:15 AM,35.6,23.0,60,29.57,10.0,ESE,10.4,-,N/A,,Clear,120,2014-01-03 17:15:00
10:35 AM,35.6,24.8,65,29.56,10.0,SE,10.4,-,N/A,,Clear,130,2014-01-03 17:35:00
10:55 AM,35.6,24.8,65,29.55,10.0,ESE,11.5,-,N/A,,Clear,120,2014-01-03 17:55:00
11:15 AM,37.4,26.6,65,29.53,10.0,ESE,12.7,17.3,N/A,,Clear,120,2014-01-03 18:15:00
11:35 AM,35.6,26.6,70,29.52,10.0,ESE,11.5,-,N/A,,Clear,110,2014-01-03 18:35:00
11:55 AM,37.4,26.6,65,29.51,10.0,East,3.5,-,N/A,,Clear,100,2014-01-03 18:55:00
12:15 PM,37.4,26.6,65,29.50,10.0,ENE,5.8,-,N/A,,Clear,70,2014-01-03 19:15:00
12:35 PM,37.4,26.6,65,29.48,10.0,East,6.9,-,N/A,,Clear,90,2014-01-03 19:35:00
12:55 PM,37.4,26.6,65,29.47,10.0,NE,4.6,-,N/A,,Clear,50,2014-01-03 19:55:00
1:15 PM,39.2,26.6,61,29.46,10.0,SE,5.8,-,N/A,,Clear,140,2014-01-03 20:15:00
1:35 PM,37.4,28.4,70,29.46,10.0,SSE,9.2,-,N/A,,Clear,150,2014-01-03 20:35:00
1:55 PM,35.6,28.4,75,29.46,10.0,ESE,8.1,-,N/A,,Clear,120,2014-01-03 20:55:00
2:15 PM,37.4,28.4,70,29.47,10.0,ESE,3.5,-,N/A,,Clear,120,2014-01-03 21:15:00
2:35 PM,37.4,28.4,70,29.47,10.0,Calm,Calm,-,N/A,,Clear,0,2014-01-03 21:35:00
2:55 PM,41.0,28.4,61,29.47,10.0,Calm,Calm,-,N/A,,Clear,0,2014-01-03 21:55:00
3:15 PM,39.2,30.2,70,29.49,10.0,NW,12.7,19.6,N/A,Rain,Light Rain,310,2014-01-03 22:15:00
3:35 PM,35.6,32.0,87,29.50,7.0,NW,5.8,-,0.01,Rain,Light Rain,310,2014-01-03 22:35:00
3:55 PM,35.6,32.0,87,29.52,4.0,NW,12.7,-,0.02,Rain,Light Rain,320,2014-01-03 22:55:00
4:15 PM,33.8,32.0,93,29.54,7.0,NNW,16.1,-,N/A,,Light Drizzle,330,2014-01-03 23:15:00
4:35 PM,33.8,32.0,93,29.56,7.0,NW,15.0,20.7,N/A,,Drizzle,320,2014-01-03 23:35:00
4:55 PM,32.0,32.0,100,29.57,5.0,NNW,21.9,25.3,0.02,Snow,Light Snow,340,2014-01-03 23:55:00
5:15 PM,32.0,30.2,93,29.57,10.0,NNW,12.7,25.3,N/A,,Scattered Clouds,330,2014-01-04 00:15:00
5:35 PM,32.0,30.2,93,29.57,10.0,NW,9.2,-,N/A,,Clear,320,2014-01-04 00:35:00
5:55 PM,32.0,30.2,93,29.57,10.0,NW,9.2,-,N/A,,Scattered Clouds,310,2014-01-04 00:55:00
6:15 PM,32.0,28.4,87,29.57,10.0,NW,9.2,-,N/A,,Scattered Clouds,310,2014-01-04 01:15:00
6:35 PM,32.0,28.4,87,29.59,10.0,NW,11.5,17.3,N/A,,Scattered Clouds,310,2014-01-04 01:35:00
6:55 PM,32.0,28.4,87,29.60,10.0,NNW,13.8,18.4,N/A,,Clear,330,2014-01-04 01:55:00
7:15 PM,32.0,26.6,80,29.59,10.0,NNW,15.0,19.6,N/A,,Clear,330,2014-01-04 02:15:00
7:35 PM,32.0,23.0,69,29.60,10.0,NW,17.3,29.9,N/A,,Clear,320,2014-01-04 02:35:00
7:55 PM,32.0,23.0,69,29.61,10.0,NW,20.7,25.3,N/A,,Clear,320,2014-01-04 02:55:00
8:15 PM,32.0,23.0,69,29.64,10.0,NNW,28.8,36.8,N/A,,Clear,330,2014-01-04 03:15:00
8:35 PM,30.2,23.0,75,29.67,10.0,NNW,29.9,42.6,N/A,,Scattered Clouds,330,2014-01-04 03:35:00
8:55 PM,26.6,21.2,80,29.69,10.0,NW,33.4,41.4,N/A,,Mostly Cloudy,320,2014-01-04 03:55:00
9:15 PM,24.8,19.4,80,29.71,10.0,NNW,34.5,44.9,N/A,,Mostly Cloudy,330,2014-01-04 04:15:00
9:35 PM,24.8,19.4,80,29.72,10.0,NNW,24.2,38.0,N/A,,Mostly Cloudy,330,2014-01-04 04:35:00
9:55 PM,23.0,19.4,86,29.74,10.0,NNW,25.3,35.7,N/A,,Scattered Clouds,330,2014-01-04 04:55:00
10:15 PM,23.0,17.6,80,29.75,10.0,NW,24.2,33.4,N/A,Snow,Light Snow,320,2014-01-04 05:15:00
10:35 PM,23.0,17.6,80,29.78,7.0,NW,20.7,27.6,N/A,Snow,Light Snow,320,2014-01-04 05:35:00
10:55 PM,23.0,17.6,80,29.78,10.0,NW,23.0,29.9,N/A,Snow,Light Snow,320,2014-01-04 05:55:00
11:15 PM,23.0,17.6,80,29.80,10.0,NW,19.6,27.6,N/A,,Mostly Cloudy,320,2014-01-04 06:15:00
11:35 PM,23.0,17.6,80,29.82,10.0,NNW,16.1,-,N/A,,Mostly Cloudy,330,2014-01-04 06:35:00
11:55 PM,23.0,17.6,80,29.82,10.0,NNW,15.0,18.4,N/A,Snow,Light Snow,330,2014-01-04 06:55:00